Location: Antioch Church
(34.9543°N, 88.5145°W)
Time: 00:15:55
(UTC+00:00)

H-II Stage 2 - Pass Details

Date: 11 December 2019
Orbit: 301 x 28219 km, 28.6° (Epoch: 22 January)

Event Time Altitude Azimuth Distance (km) Brightness Sun altitude
Rises 00:52:40 0° 271° (W) 13,986 10.2 -25.9°
Reaches altitude 10° 01:10:20 10° 270° (W) 8,200 8.6 -29.5°
Maximum altitude 01:27:14 47° 202° (SSW) 1,441 3.9 -32.9°
Enters shadow 01:27:41 46° 189° (S) 1,366 3.7 -33.0°
